TimePDT,TemperatureF,Dew PointF,Humidity,Sea Level PressureIn,VisibilityMPH,Wind Direction,Wind SpeedMPH,Gust SpeedMPH,PrecipitationIn,Events,Conditions,WindDirDegrees,DateUTC
12:53 AM,54.0,44.1,69,30.12,10.0,SW,3.5,-,N/A,,Clear,220,2012-03-21 07:53:00
1:53 AM,53.1,45.0,74,30.12,10.0,Calm,Calm,-,N/A,,Clear,0,2012-03-21 08:53:00
2:53 AM,52.0,42.1,69,30.11,10.0,Calm,Calm,-,N/A,,Clear,0,2012-03-21 09:53:00
3:53 AM,51.1,42.1,71,30.10,10.0,Calm,Calm,-,N/A,,Clear,0,2012-03-21 10:53:00
4:53 AM,50.0,39.9,68,30.09,10.0,Calm,Calm,-,N/A,,Clear,0,2012-03-21 11:53:00
5:53 AM,50.0,39.0,66,30.10,10.0,Calm,Calm,-,N/A,,Partly Cloudy,0,2012-03-21 12:53:00
6:53 AM,48.9,39.9,71,30.10,10.0,Calm,Calm,-,N/A,,Partly Cloudy,0,2012-03-21 13:53:00
7:53 AM,52.0,42.1,69,30.10,10.0,South,3.5,-,N/A,,Clear,190,2012-03-21 14:53:00
8:53 AM,57.9,42.1,56,30.10,10.0,Calm,Calm,-,N/A,,Partly Cloudy,0,2012-03-21 15:53:00
9:53 AM,62.1,42.1,48,30.08,10.0,Calm,Calm,-,N/A,,Partly Cloudy,0,2012-03-21 16:53:00
10:53 AM,68.0,39.0,35,30.06,10.0,NNW,4.6,-,N/A,,Partly Cloudy,340,2012-03-21 17:53:00
11:53 AM,72.0,34.0,25,30.04,10.0,Variable,3.5,-,N/A,,Partly Cloudy,0,2012-03-21 18:53:00
12:53 PM,73.9,39.0,28,30.02,10.0,Variable,5.8,-,N/A,,Partly Cloudy,0,2012-03-21 19:53:00
1:53 PM,73.0,34.0,24,30.01,10.0,WSW,8.1,-,N/A,,Partly Cloudy,250,2012-03-21 20:53:00
2:53 PM,72.0,35.1,26,29.98,10.0,WSW,8.1,-,N/A,,Partly Cloudy,240,2012-03-21 21:53:00
3:53 PM,71.1,32.0,24,29.96,10.0,West,8.1,-,N/A,,Partly Cloudy,260,2012-03-21 22:53:00
4:53 PM,71.1,30.9,23,29.95,10.0,Variable,4.6,-,N/A,,Clear,0,2012-03-21 23:53:00
5:53 PM,70.0,30.0,23,29.94,10.0,West,4.6,-,N/A,,Clear,260,2012-03-22 00:53:00
6:53 PM,66.9,35.1,31,29.95,10.0,West,4.6,-,N/A,,Clear,260,2012-03-22 01:53:00
7:53 PM,64.0,39.0,40,29.97,10.0,West,3.5,-,N/A,,Clear,260,2012-03-22 02:53:00
8:53 PM,61.0,43.0,52,29.98,10.0,Calm,Calm,-,N/A,,Clear,0,2012-03-22 03:53:00
9:53 PM,59.0,45.0,60,29.98,10.0,WSW,3.5,-,N/A,,Clear,240,2012-03-22 04:53:00
10:53 PM,57.9,46.9,67,29.99,10.0,Calm,Calm,-,N/A,,Clear,0,2012-03-22 05:53:00
11:53 PM,55.9,46.9,72,29.98,10.0,North,-9999.0,-,N/A,,Clear,0,2012-03-22 06:53:00